WESTFORD NEEDLES, 2378

Orbit data source: Space-Track

WESTFORD NEEDLES, 2378 is space debris in LEO originally from a launch on Thu, 09 May 1963 UTC launched from the Air Force Western Test Range (AFWTR). Debris objects in space refer to the collection of defunct objects orbiting the Earth. Examples of debris include non-operational satellites, rocket bodies, and fragments generated from explosions, collisions, or faulty payload assembly.

Loading next visibility...
Identifier
2378, 1963-014Y
Orbit
LEO
Country
Flag of USUS
Related business
Manufacturer
Unknown
Mission
Spacecraft
Bus & Motor
Unknown
Mass
Unknown
Launch date (UTC)
1963-05-09 (63 years ago)
Launch vehicle
Unknown
Launch site
Air Force Western Test Range (AFWTR)
Object type
Payload
Rocket body
Debris
Shape & HBR
Unknown shape, 1.1 m
Radar Cross Section
Medium (>0.1 m² and <1 m²)

Expand to show TLE details & history
Last TLE update: 1 month ago

TLE from 1 month ago
0 WESTFORD NEEDLES
1 02378U 63014Y   25269.16618598  .00000242  00000-0  10941+0 0  9994
2 02378  87.3776 183.2256 0130667  73.8568 287.6626  8.66612682972614
Epoch: 2025-09-26T03:59Z
TLE epoch observation values (Epoch: 2025-09-26T03:59:18.468Z)
Latitude
-0.00003°
Longitude
118.18178°
Altitude
3,597.862 km
Speed
6.334 km/s
True Right ascension
12h 12m 54s
True Declination
0° 00' 00"
Sunlit
Object was in daylight at epoch
Visualization orbit readout
Latitude
Unknown
Longitude
Unknown
Altitude
Unknown
Speed
Unknown
Apparent Right ascension
Unknown
Apparent Declination
Unknown
Sunlit
N/A
Visualization observer readout
Local Sidereal Time
21:22:44
Azimuth
Unknown
Elevation
Unknown
Doppler factor
Unknown
Orbital elements
Apogee altitude
3,762.424 km
Perigee altitude
3,500.834 km
Semi-major axis
10,009.766 km
Eccentricity
0.01307
Inclination
87.3776°
RAAN
183.2256°
Arg. of periapsis
73.8568°
True anomaly
286.2289°
Mean anomaly
287.6626°
Eccentric anomaly
286.94644°
Mean motion
2.16724 °/min
Orbital period
166.11 mins
BSTAR
0.10941
Loading maneuver chart data...
Computing Atmospheric mass density...

Documentation

Showing up to 5 results
|